This demonstration page uses our WeatherBlox Daily Observations layout. Learn more.

Left ArrowRight Arrow

30.00354, -91.81873

Hourly Observations for September 4, 2022

Temp ( °F °C ) Dew Point ( °F °C ) Humidity (%) Winds ( mph kmh ) Pressure ( in mb ) Visibility ( mi km ) Precip ( " mm )
12:16 am 00:16 Partly Cloudy with Mist and Fog 73 22.8 71 21.7 94 94 Calm 30.01 1016 6 10 0.00 0.00
12:53 am 00:53 Clear 73 22.8 72 22.2 96 96 Calm 30.01 1016 9 14 0.00 0.00
1:53 am 01:53 Clear with Light Rain 74 23.3 72 22.2 94 94 Calm 30.02 1017 8 13 0.01 0.13
2:53 am 02:53 Clear 74 23.3 72 22.2 94 94 Calm 30.01 1016 9 14 0.01 0.13
3:53 am 03:53 Cloudy 74 23.3 72 22.2 94 94 Calm 29.98 1015 10 16 0.01 0.13
4:53 am 04:53 Cloudy with Light Rain 75 23.9 72 22.2 90 90 Calm 29.98 1015 10 16 0.01 0.13
5:53 am 05:53 Cloudy 74 23.3 72 22.2 94 94 N 3 6 29.98 1015 10 16 0.01 0.13
6:53 am 06:53 Partly Cloudy with Light Rain 74 23.3 72 22.2 94 94 Calm 29.99 1016 10 16 0.01 0.13
7:15 am 07:15 Mostly Cloudy with Light Rain 75 23.9 73 22.8 94 94 Calm 30.00 1016 8 13 0.01 0.25
7:28 am 07:28 Mostly Cloudy with Light Rain 75 23.9 73 22.8 94 94 Calm 30.01 1016 6 10 0.02 0.51
7:53 am 07:53 Mostly Cloudy with Light Rain 75 23.9 73 22.8 94 94 Calm 30.02 1017 7 11 0.03 0.76
8:04 am 08:04 Mostly Cloudy with Light Rain 75 23.9 73 22.8 94 94 Calm 30.02 1017 9 14 0.01 0.13
8:53 am 08:53 Cloudy with Light Rain 76 24.4 73 22.8 91 91 Calm 30.02 1017 10 16 0.01 0.13
9:06 am 09:06 Cloudy with Light Rain 76 24.4 73 22.8 91 91 Calm 30.03 1017 10 16 0.01 0.13
9:20 am 09:20 Cloudy with Light Rain 76 24.4 73 22.8 91 91 Calm 30.03 1017 10 16 0.01 0.13
9:53 am 09:53 Cloudy 77 25 74 23.3 90 90 SSW 6 9 30.02 1017 10 16 0.01 0.25
10:01 am 10:01 Cloudy with Light Rain 77 25 73 22.8 88 88 SSW 6 9 30.03 1017 10 16 0.01 0.13
10:36 am 10:36 Cloudy with Light Rain 77 25 73 22.8 88 88 SSW 5 7 30.03 1017 10 16 0.01 0.13
10:53 am 10:53 Cloudy with Light Rain 78 25.6 74 23.3 87 87 SW 5 7 30.02 1017 10 16 0.01 0.13
11:53 am 11:53 Cloudy with Light Rain 77 25 74 23.3 90 90 SW 7 11 30.02 1017 8 13 0.01 0.25
12:53 pm 12:53 Cloudy with Light Rain 78 25.6 74 23.3 87 87 SW 6 9 30.01 1016 10 16 0.01 0.25
1:05 pm 13:05 Cloudy with Light Rain 78 25.6 75 23.9 90 90 SW 7 11 30.01 1016 10 16 0.01 0.13
1:18 pm 13:18 Cloudy with Light Rain 78 25.6 75 23.9 90 90 SSW 8 13 30.01 1016 10 16 0.01 0.13
1:33 pm 13:33 Cloudy with Light Rain 79 26.1 75 23.9 88 88 SSW 7 11 30.01 1016 10 16 0.01 0.13
1:53 pm 13:53 Cloudy with Light Rain 79 26.1 75 23.9 88 88 SW 7 11 30.00 1016 10 16 0.01 0.13
2:18 pm 14:18 Cloudy with Light Rain 78 25.6 75 23.9 90 90 SW 7 11 30.00 1016 10 16 0.01 0.13
2:25 pm 14:25 Cloudy with Light Rain 78 25.6 74 23.3 87 87 SW 7 11 29.99 1016 10 16 0.01 0.13
2:53 pm 14:53 Mostly Cloudy with Light Rain 78 25.6 74 23.3 87 87 WSW 5 7 29.98 1015 10 16 0.01 0.25
3:36 pm 15:36 Mostly Cloudy with Light Rain 78 25.6 75 23.9 90 90 SSW 7 11 29.96 1014 6 10 0.02 0.51
3:53 pm 15:53 Mostly Cloudy with Light Rain 77 25 74 23.3 90 90 S 5 7 29.95 1014 10 16 0.03 0.76
4:53 pm 16:53 Partly Cloudy with Light Rain 77 25 74 23.3 90 90 SW 3 6 29.94 1014 10 16 0.01 0.13
5:21 pm 17:21 Cloudy with Light Rain 78 25.6 74 23.3 87 87 W 6 9 29.94 1014 10 16 0.01 0.13
5:53 pm 17:53 Partly Cloudy 78 25.6 73 22.8 85 85 W 5 7 29.93 1014 10 16 0.01 0.13
6:53 pm 18:53 Sunny 77 25 73 22.8 88 88 Calm 29.91 1013 10 16 0.00 0.00
7:53 pm 19:53 Clear 74 23.3 72 22.2 94 94 Calm 29.90 1013 10 16 0.00 0.00
8:53 pm 20:53 Clear 73 22.8 72 22.2 96 96 Calm 29.93 1014 10 16 0.01 0.13
9:53 pm 21:53 Clear 73 22.8 72 22.2 96 96 Calm 29.96 1015 9 14 0.01 0.13
10:53 pm 22:53 Clear 73 22.8 71 21.7 94 94 Calm 29.96 1014 7 11 0.00 0.00
11:53 pm 23:53 Clear 73 22.8 71 21.7 94 94 ESE 3 6 29.96 1015 9 14 0.00 0.00

Powered by AerisWeather